الصفحة الرئيسية
METAR-TAF:

METAR-TAF

مطار :

بوندابيرج, أستراليا

دائرة عرض: 24-54-14S, خط طول: 152-19-07E, ارتفاع: 33 متر

مراقبة الطقس الحالي

تاريخ ووقت الإصدار 19 دقيقة قبل الساعة 17:00UTC
ريح 6 عقدة من الجنوب/الجنوب الغربي
درجة الحرارة 18°درجة مئوية
الرطوبة 68%
ضغط 1015 hPa
الرؤية 10 كم أو أكثر

METAR: YBUD 221700Z AUTO 21006KT 9999 // NCD 18/12 Q1015

زمن: 03:19 (17:19 UTC)


TAF: مفقودة

أرصاد الطقس والتوقعات من أكثر من 4000 مطار (تقارير الطقس للمطار METAR والتنبؤ بالطقس بالمطارTAF).

المحطات المتاحة هي النقط الصفراء والحمراء على الخريطة.

حرك المؤشر فوق النقطة لمعرفة اسم المحطة.

ثم انقر لمعرفة أرصاد وتوقعات الطقس.

لتغيير الخارطة: اضغط على الأزرار الخضراء مع رمز الصليب الأسود للتكبير. على الزر الأخضر مع شرطة للتصغير، أو على الأسهم الخضراء للخرائط المجاورة.


METAR-TAF: